Location: Ettringen
(48.1054°N, 10.6545°E)
Time: 21:34:54
(UTC+00:00)

ISS - Pass Details

Date: 18 November 2025
Orbit: 416 x 421 km, 51.6° (Epoch: 05 December)

Event Time Altitude Azimuth Distance (km) Brightness Sun altitude
Rises 16:21:24 0° 234° (SW) 2,361 1.9 -7.7°
Reaches altitude 10° 16:23:31 10° 231° (SW) 1,499 0.4 -8.1°
Maximum altitude 16:26:50 59° 152° (SSE) 490 -3.5 -8.6°
Enters shadow 16:29:45 13° 73° (ENE) 1,339 -1.9 -9.0°
